Tracking 30995 objects as of 5-Jul-2025
HD Live streaming from Space Station
objects crossing your sky now

ONEWEB-0054

Track ONEWEB-0054 now!
10-day predictions
ONEWEB-0054 is classified as:


NORAD ID: 45158
Int'l Code: 2020-008AD
Perigee: 1,227.4 km
Apogee: 1,230.3 km
Inclination: 87.9 °
Period: 109.9 minutes
Semi major axis: 7599 km
RCS: Unknown
Launch date: February 6, 2020
Source: United Kingdom (UK)
Launch site: TYURATAM MISSILE AND SPACE COMPLEX (TTMTR)
Your satellite tracking list
STARLINK-4722
Track 1 satellite(s)




NASA's NSSDC Master Catalog

Two Line Element Set (TLE):
1 45158U 20008AD  25185.80880037 -.00000714  00000-0 -20815-2 0  9990
2 45158  87.8827 105.5437 0001930  75.1160 285.0181 13.10374054262534
Source of the keplerian elements: AFSPC